Weather History for La Paz, B. C. S., Mexico

Change the Weather History Date:

Sunday, November 4, 2012

  Actual Average Record
Temperature  
Mean Temperature 78 °F -  
Max Temperature 88 °F 82 °F - ()
Min Temperature 68 °F 59 °F - ()
Cooling Degree Days 13    
Growing Degree Days 28 (Base 50)    
Moisture  
Dew Point 66 °F    
Average Humidity 66    
Maximum Humidity 94    
Minimum Humidity 43    
Precipitation  
Precipitation 0.00 in - - ()
Sea Level Pressure  
Sea Level Pressure 29.96 in    
Wind  
Wind Speed 5 mph ()    
Max Wind Speed 16 mph    
Max Gust Speed -    
Visibility 10.6 miles    
Events      
T = Trace of Precipitation, MM = Missing Value Source: Averaged Metar Reports

Daily Weather History Graph

Daily Weather History Graph

Search for Another Location

Airport:

Trip Planner

Search our weather history database for the weather conditions in past years. The results will help you decide how hot, cold, wet, or windy it might be!

Date:

Astronomy

Nov. 04, 2012 Rise Set
Actual Time 6:29 AM MST 5:39 PM MST
Civil Twilight 6:06 AM MST 6:03 PM MST
Nautical Twilight 5:39 AM MST 6:30 PM MST
Astronomical Twilight 5:12 AM MST 6:56 PM MST
Moon 10:25 PM MST (11/4) 11:09 AM MST (11/4)
Length of Visible Light 11h 56m
Length of Day
11h 09m
Waning Gibbous, 71% of the Moon is Illuminated
Nov 4
Waning Gibbous
Nov 6
Last Quarter
Nov 13
New
Nov 20
First Quarter
Nov 28
Full

Hourly Weather History & Observations

Time (MST) Temp. Heat Index Dew Point Humidity Pressure Visibility Wind Dir Wind Speed Gust Speed Precip Events Conditions
1:50 AM 73 °F - 66 °F 73% 29.91 in 2 mi Calm Calm - -  
4:50 AM 69 °F - 65 °F 83% 29.91 in 2 mi Calm Calm - -  
5:40 AM 64.4 °F - 60.8 °F 88% 29.93 in 8.0 mi Calm Calm - N/A   Scattered Clouds
6:41 AM 62.6 °F - 60.8 °F 94% 29.96 in 8.0 mi South 4.6 mph - N/A   Scattered Clouds
7:49 AM 68.0 °F - 62.6 °F 83% 30.02 in 8.0 mi South 6.9 mph - N/A   Scattered Clouds
7:50 AM 72 °F - 66 °F 75% 29.96 in 12 mi Calm Calm - -  
8:42 AM 75.2 °F - 64.4 °F 69% 29.98 in 8.0 mi Calm Calm - N/A   Scattered Clouds
9:41 AM 82.4 °F 84.6 °F 66.2 °F 58% 29.97 in 10.0 mi North 16.1 mph - N/A   Scattered Clouds
10:43 AM 82.4 °F 83.9 °F 64.4 °F 54% 30.02 in 12.0 mi NNE 15.0 mph - N/A   Scattered Clouds
10:50 AM 85 °F - 69 °F 51% 29.96 in 19 mi NW 8.9 mph - -   Scattered Clouds
11:46 AM 84.2 °F 85.0 °F 62.6 °F 48% 29.94 in 15.0 mi North 15.0 mph - N/A   Scattered Clouds
12:42 PM 86.0 °F 87.3 °F 64.4 °F 48% 29.92 in 15.0 mi North 16.1 mph - N/A   Scattered Clouds
1:50 PM 87 °F - 68 °F 43% 29.91 in 19 mi NW 4.5 mph - -   Scattered Clouds
1:53 PM 84.2 °F 85.6 °F 64.4 °F 51% 29.96 in 15.0 mi North 15.0 mph - N/A   Scattered Clouds
2:46 PM 86.0 °F 86.6 °F 62.6 °F 45% 29.91 in 15.0 mi NNE 13.8 mph - N/A   Mostly Cloudy
3:47 PM 84.2 °F 85.0 °F 62.6 °F 48% 29.91 in 15.0 mi North 13.8 mph - N/A   Mostly Cloudy
4:45 PM 84 °F - 69 °F 52% 29.90 in 19 mi North 11.2 mph - -   Clear
4:47 PM 82.4 °F 83.4 °F 62.6 °F 51% 30.04 in 10.0 mi NNE 11.5 mph - N/A   Mostly Cloudy
5:43 PM 78.8 °F - 64.4 °F 61% 29.94 in 10.0 mi North 11.5 mph - N/A   Mostly Cloudy
6:41 PM 78.8 °F - 68.0 °F 69% 29.96 in 10.0 mi North 9.2 mph - N/A   Scattered Clouds
7:45 PM 79 °F - 72 °F 75% 29.93 in 2 mi North 8.9 mph - -   Clear
7:53 PM 77.0 °F - 68.0 °F 74% 30.08 in 10.0 mi North 6.9 mph - N/A   Scattered Clouds
8:52 PM 75.2 °F - 68.0 °F 78% 29.97 in 10.0 mi Calm Calm - N/A   Clear
9:41 PM 73.4 °F - 68.0 °F 83% 29.97 in 10.0 mi Calm Calm - N/A   Clear
10:44 PM 71.6 °F - 68.0 °F 88% 30.09 in 10.0 mi Calm Calm - N/A   Clear
10:50 PM 77 °F - 73 °F 83% 29.96 in 2 mi Calm Calm - -